Date String (YYYY-MM-DD hh:mm:ss) UTC,Instrument flags,absolute air pressure of the measurement (hPa),sample flow rate (lpm),inlet stack bypass flow (lpm),air temperature of the measurement (°C),ambient temperature measured by the external sensor (°C),aerosol sample conditioner tube jacket temperature (°C),OPC LED temperature (°C),internal box temperature (°C),relative humidity of the measurement (%),span deviation,mass concentration of particles derived from Lorenz-Mie calculation of OPC scattering (μg/m³),mass concentration of particles derived from Lorenz-Mie calculation of OPC scattering (μg/m³),mass concentration of particles derived from Lorenz-Mie calculation of OPC scattering (μg/m³)
DateTimeUTC,F1_M11,P_M11,Q1_M11,Q2_M11,T1_M11,T2_M11,T3_M11,T4_M11,T5_M11,U1_M11,ZSPAN_M11,X2_M11,X0_M11,X1_M11
2023-06-12 07:00:00,SystemResetWarning,0832.0,5.00,000.00,030.4,028.7,000.0,038.9,031.8,29.4,0001.4,0005.54,0009.46,0005.05
2023-06-12 07:01:00,SystemResetWarning,0832.0,4.99,000.00,030.4,028.7,000.0,038.9,031.7,29.4,0001.2,0005.49,0009.33,0005.02
2023-06-12 07:02:00,SystemResetWarning,0832.1,5.00,000.00,030.4,028.7,000.0,038.9,031.7,29.3,0001.0,0005.38,0008.76,0004.97
2023-06-12 07:03:00,SystemResetWarning,0832.1,5.00,000.00,030.4,028.7,000.0,038.9,031.8,29.3,0001.1,0005.30,0008.55,0004.92
2023-06-12 07:04:00,SystemResetWarning,0832.1,5.00,000.00,030.4,028.7,000.0,038.9,031.8,29.3,0001.5,0005.25,0008.47,0004.87
2023-06-12 07:05:00,SystemResetWarning,0832.0,5.00,000.00,030.4,028.7,000.0,038.9,031.8,29.3,0001.3,0005.19,0008.32,0004.82
2023-06-12 07:06:00,SystemResetWarning,0832.1,5.00,000.00,030.4,028.7,000.0,038.9,031.8,29.4,0001.0,0005.15,0008.29,0004.78
2023-06-12 07:07:00,SystemResetWarning,0832.0,5.00,000.00,030.4,028.7,000.0,038.9,031.8,29.4,0000.8,0005.11,0008.20,0004.75
2023-06-12 07:08:00,SystemResetWarning,0832.0,5.00,000.00,030.4,028.7,000.0,038.9,031.8,29.4,0001.0,0005.06,0008.08,0004.70
2023-06-12 07:09:00,SystemResetWarning,0832.0,5.00,000.00,030.4,028.8,000.0,038.9,031.8,29.4,0000.7,0005.01,0008.03,0004.66
2023-06-12 07:10:00,SystemResetWarning,0832.0,5.00,000.00,030.4,028.8,000.0,038.9,031.8,29.4,0001.1,0004.98,0008.03,0004.63
2023-06-12 07:11:00,SystemResetWarning,0832.0,5.01,000.00,030.4,028.8,000.0,038.9,031.8,29.4,0001.4,0004.96,0008.05,0004.62
2023-06-12 07:12:00,SystemResetWarning,0832.0,5.00,000.00,030.4,028.8,000.0,038.9,031.8,29.4,0001.3,0004.97,0008.60,0004.60
2023-06-12 07:13:00,SystemResetWarning,0832.0,4.99,000.00,030.4,028.8,000.0,038.9,031.8,29.4,0001.2,0004.96,0008.59,0004.59
2023-06-12 07:14:00,SystemResetWarning,0831.9,4.99,000.00,030.4,028.8,000.0,038.9,031.8,29.3,0001.1,0004.95,0008.55,0004.58
2023-06-12 07:15:00,SystemResetWarning,0831.9,5.00,000.00,030.4,028.8,000.0,038.9,031.8,29.2,0000.8,0004.91,0008.48,0004.55
2023-06-12 07:16:00,SystemResetWarning,0831.9,5.00,000.00,030.4,028.8,000.0,038.9,031.9,29.1,0001.0,0004.89,0008.46,0004.51
2023-06-12 07:17:00,SystemResetWarning,0831.9,5.00,000.00,030.4,028.8,000.0,038.9,031.9,29.1,0001.2,0004.85,0008.45,0004.46
2023-06-12 07:18:00,SystemResetWarning,0831.9,5.01,000.00,030.4,028.8,000.0,038.9,031.9,29.1,0001.4,0004.76,0008.34,0004.39
2023-06-12 07:19:00,SystemResetWarning,0832.1,5.00,000.00,030.4,028.8,000.0,038.9,031.9,29.0,0001.8,0004.66,0008.18,0004.32
2023-06-12 07:20:00,SystemResetWarning,0831.9,5.01,000.00,030.4,028.8,000.0,038.9,031.9,28.9,0002.0,0004.57,0008.09,0004.23
2023-06-12 07:21:00,SystemResetWarning,0831.7,4.99,000.00,030.4,028.8,000.0,039.0,031.9,28.9,0002.0,0004.49,0007.94,0004.14
2023-06-12 07:22:00,SystemResetWarning,0831.7,5.00,000.00,030.4,028.8,000.0,039.0,031.9,28.9,0002.0,0004.42,0007.81,0004.09
2023-06-12 07:23:00,SystemResetWarning,0831.7,4.99,000.00,030.4,028.8,000.0,039.0,031.9,29.0,0002.0,0004.36,0007.09,0004.05
2023-06-12 07:24:00,SystemResetWarning,0831.7,5.00,000.00,030.4,028.8,000.0,039.0,031.9,28.9,0002.3,0004.30,0006.94,0003.98
2023-06-12 07:25:00,SystemResetWarning,0831.6,5.00,000.00,030.4,028.8,000.0,039.0,031.9,28.9,0002.2,0004.22,0006.73,0003.90
2023-06-12 07:26:00,SystemResetWarning,0831.6,5.00,000.00,030.4,028.8,000.0,039.0,031.9,28.9,0002.1,0004.16,0006.60,0003.83
2023-06-12 07:27:00,SystemResetWarning,0831.6,5.00,000.00,030.4,028.8,000.0,039.0,031.9,28.8,0002.3,0004.08,0006.40,0003.77
2023-06-12 07:28:00,SystemResetWarning,0831.5,5.00,000.00,030.4,028.8,000.0,039.0,031.9,28.8,0002.4,0003.99,0006.16,0003.70
2023-06-12 07:29:00,SystemResetWarning,0831.6,5.00,000.00,030.4,028.8,000.0,039.0,031.9,28.7,0002.6,0003.93,0005.91,0003.64
2023-06-12 07:30:00,SystemResetWarning,0831.6,4.99,000.00,030.4,028.8,000.0,039.0,031.9,28.6,0003.1,0003.88,0005.87,0003.58
2023-06-12 07:31:00,SystemResetWarning,0831.6,4.99,000.00,030.4,028.8,000.0,039.0,031.9,28.6,0003.1,0003.83,0005.68,0003.55
2023-06-12 07:32:00,SystemResetWarning,0831.6,5.00,000.00,030.4,028.8,000.0,039.0,031.8,28.6,0003.0,0003.82,0005.70,0003.54
2023-06-12 07:33:00,SystemResetWarning,0831.6,5.00,000.00,030.4,028.8,000.0,039.0,031.9,28.6,0002.7,0003.77,0005.88,0003.47
2023-06-12 07:34:00,SystemResetWarning,0831.6,5.00,000.00,030.4,028.7,000.0,039.0,031.8,28.8,0002.7,0003.74,0006.13,0003.42
2023-06-12 07:35:00,SystemResetWarning,0831.6,5.00,000.00,030.4,028.7,000.0,039.0,031.8,29.0,0003.0,0003.72,0006.09,0003.42
2023-06-12 07:36:00,SystemResetWarning,0831.6,5.00,000.00,030.4,028.8,000.0,039.0,031.9,29.0,0003.0,0003.79,0006.31,0003.47
2023-06-12 07:37:00,SystemResetWarning,0831.5,5.00,000.00,030.4,028.7,000.0,039.0,031.9,29.0,0003.2,0003.82,0006.37,0003.50
2023-06-12 07:38:00,SystemResetWarning,0831.5,4.99,000.00,030.4,028.7,000.0,039.0,031.9,29.0,0003.1,0003.88,0006.60,0003.55
2023-06-12 07:39:00,SystemResetWarning,0831.4,4.99,000.00,030.4,028.7,000.0,039.0,031.9,29.1,0002.9,0003.94,0006.72,0003.62
2023-06-12 07:40:00,SystemResetWarning,0831.4,5.01,000.00,030.4,028.7,000.0,039.0,031.9,29.2,0003.0,0004.03,0006.98,0003.68
2023-06-12 07:41:00,SystemResetWarning,0831.4,5.00,000.00,030.4,028.7,000.0,039.0,031.9,29.2,0002.9,0004.14,0007.27,0003.76
2023-06-12 07:42:00,SystemResetWarning,0831.3,5.00,000.00,030.4,028.7,000.0,039.0,031.9,29.2,0003.0,0004.22,0007.36,0003.86
2023-06-12 07:43:00,SystemResetWarning,0831.3,5.01,000.00,030.4,028.7,000.0,039.0,031.8,29.2,0003.1,0004.32,0007.48,0003.94
2023-06-12 07:44:00,SystemResetWarning,0831.3,5.01,000.00,030.4,028.7,000.0,039.0,031.8,29.3,0003.4,0004.39,0007.50,0004.04
2023-06-12 07:45:00,SystemResetWarning,0831.3,5.00,000.00,030.4,028.7,000.0,039.0,031.8,29.2,0003.4,0004.44,0007.32,0004.13
2023-06-12 07:46:00,SystemResetWarning,0831.3,5.01,000.00,030.4,028.7,000.0,039.0,031.8,29.3,0003.3,0004.48,0007.35,0004.18
2023-06-12 07:47:00,SystemResetWarning,0831.3,5.01,000.00,030.4,028.7,000.0,038.9,031.8,29.3,0003.6,0004.48,0007.28,0004.20
2023-06-12 07:48:00,SystemResetWarning,0831.3,5.00,000.00,030.4,028.7,000.0,038.9,031.7,29.2,0003.5,0004.51,0007.28,0004.23
2023-06-12 07:49:00,SystemResetWarning,0831.3,5.00,000.00,030.3,028.7,000.0,038.9,031.8,29.3,0003.2,0004.54,0007.29,0004.27
2023-06-12 07:50:00,SystemResetWarning,0831.3,4.99,000.00,030.3,028.7,000.0,038.9,031.7,29.3,0003.1,0004.57,0007.37,0004.30
2023-06-12 07:51:00,SystemResetWarning,0831.3,4.99,000.00,030.3,028.7,000.0,038.9,031.7,29.2,0003.0,0004.58,0007.38,0004.32
2023-06-12 07:52:00,SystemResetWarning,0831.3,5.00,000.00,030.3,028.6,000.0,038.9,031.7,29.2,0002.9,0004.59,0007.49,0004.35
2023-06-12 07:53:00,SystemResetWarning,0831.3,5.00,000.00,030.3,028.6,000.0,038.9,031.7,29.2,0002.7,0004.65,0007.61,0004.39
2023-06-12 07:54:00,SystemResetWarning,0831.3,5.00,000.00,030.3,028.6,000.0,038.9,031.7,29.2,0002.6,0004.69,0007.67,0004.42
2023-06-12 07:55:00,SystemResetWarning,0831.3,5.00,000.00,030.3,028.6,000.0,038.9,031.7,29.2,0002.0,0004.73,0007.74,0004.45
2023-06-12 07:56:00,SystemResetWarning,0831.3,5.01,000.00,030.3,028.6,000.0,038.9,031.7,29.2,0001.9,0004.75,0007.81,0004.46
2023-06-12 07:57:00,SystemResetWarning,0831.3,5.00,000.00,030.3,028.6,000.0,038.9,031.7,29.2,0001.8,0004.77,0007.87,0004.47
2023-06-12 07:58:00,SystemResetWarning,0831.3,4.99,000.00,030.3,028.6,000.0,038.9,031.7,29.2,0001.4,0004.80,0007.95,0004.49
2023-06-12 07:59:00,SystemResetWarning,0831.3,5.00,000.00,030.3,028.6,000.0,038.9,031.7,29.2,0001.4,0004.84,0008.11,0004.51
